| time (UTC) | temp F | wind direction | speed MPH | gust MPH | rain 1hr in | rain 24hr in | rain mn in | humidity % | barometer mb |
| 20260906204530 | 91 | 88 | 14.0 | 19.0 | 0.00 | 0.14 | 0.03 | 37 | 999.3 |
| 20260906203034 | 91 | 88 | 12.0 | 21.0 | 0.00 | 0.14 | 0.03 | 37 | 999.4 |
| 20260906201524 | 91 | 111 | 17.0 | 25.0 | 0.00 | 0.14 | 0.03 | 39 | 999.4 |
| 20260906200033 | 90 | 111 | 8.0 | 22.0 | 0.00 | 0.14 | 0.03 | 39 | 999.7 |
| 20260906194527 | 91 | 142 | 9.0 | 21.0 | 0.00 | 0.14 | 0.03 | 39 | 999.8 |
| 20260906193012 | 90 | 69 | 11.0 | 16.0 | 0.00 | 0.14 | 0.03 | 39 | 999.8 |
| 20260906191508 | 90 | 161 | 14.0 | 19.0 | 0.00 | 0.14 | 0.03 | 40 | 1000.1 |
| 20260906190003 | 89 | 108 | 10.0 | 18.0 | 0.00 | 0.14 | 0.03 | 41 | 1000.3 |
| 20260906184608 | 89 | 113 | 11.0 | 19.0 | 0.01 | 0.14 | 0.03 | 42 | 1000.5 |
| 20260906183102 | 89 | 130 | 14.0 | 19.0 | 0.01 | 0.14 | 0.03 | 44 | 1000.6 |
| 20260906181559 | 89 | 141 | 11.0 | 20.0 | 0.01 | 0.14 | 0.03 | 44 | 1000.8 |
| 20260906180053 | 88 | 138 | 10.0 | 19.0 | 0.01 | 0.14 | 0.03 | 47 | 1001.0 |
| 20260906174545 | 87 | 105 | 7.0 | 17.0 | 0.00 | 0.13 | 0.02 | 48 | 1001.3 |
| 20260906173139 | 87 | 90 | 6.0 | 13.0 | 0.00 | 0.13 | 0.02 | 50 | 1001.5 |
| 20260906171535 | 86 | 128 | 12.0 | 17.0 | 0.00 | 0.13 | 0.02 | 51 | 1001.5 |
| 20260906170033 | 85 | 93 | 7.0 | 12.0 | 0.00 | 0.13 | 0.02 | 54 | 1001.6 |
| 20260906164530 | 85 | 117 | 7.0 | 12.0 | 0.00 | 0.13 | 0.02 | 56 | 1001.6 |
| 20260906163030 | 84 | 88 | 7.0 | 12.0 | 0.00 | 0.13 | 0.02 | 57 | 1001.6 |
| 20260906161530 | 84 | 92 | 6.0 | 11.0 | 0.00 | 0.13 | 0.02 | 60 | 1001.5 |
| 20260906160037 | 83 | 109 | 4.0 | 8.0 | 0.00 | 0.13 | 0.02 | 60 | 1001.4 |
| 20260906154535 | 82 | 102 | 3.0 | 8.0 | 0.00 | 0.13 | 0.02 | 65 | 1001.3 |
| 20260906153037 | 81 | 130 | 4.0 | 8.0 | 0.01 | 0.13 | 0.02 | 65 | 1001.1 |
| 20260906151536 | 80 | 93 | 3.0 | 7.0 | 0.01 | 0.13 | 0.02 | 68 | 1001.1 |
| 20260906150018 | 78 | 137 | 7.0 | 9.0 | 0.01 | 0.13 | 0.02 | 69 | 1001.1 |
| 20260906144510 | 77 | 142 | 1.0 | 7.0 | 0.01 | 0.13 | 0.02 | 72 | 1001.2 |
| 20260906143008 | 77 | 162 | 3.0 | 8.0 | 0.00 | 0.12 | 0.01 | 72 | 1001.1 |
| 20260906141508 | 76 | 126 | 6.0 | 12.0 | 0.00 | 0.12 | 0.01 | 72 | 1001.0 |
| 20260906140010 | 76 | 151 | 6.0 | 11.0 | 0.00 | 0.12 | 0.01 | 73 | 1000.9 |
| 20260906134505 | 75 | 135 | 5.0 | 9.0 | 0.00 | 0.12 | 0.01 | 74 | 1000.7 |
| 20260906133004 | 75 | 139 | 9.0 | 12.0 | 0.00 | 0.12 | 0.01 | 74 | 1000.6 |
| 20260906131508 | 74 | 142 | 8.0 | 10.0 | 0.00 | 0.12 | 0.01 | 74 | 1000.4 |
| 20260906130003 | 74 | 142 | 6.0 | 9.0 | 0.00 | 0.12 | 0.01 | 74 | 1000.3 |
| 20260906124603 | 74 | 175 | 5.0 | 9.0 | 0.00 | 0.12 | 0.01 | 74 | 1000.2 |
| 20260906123103 | 74 | 139 | 4.0 | 9.0 | 0.00 | 0.12 | 0.01 | 74 | 1000.0 |
| 20260906121556 | 74 | 325 | 1.0 | 4.0 | 0.00 | 0.12 | 0.01 | 74 | 999.8 |
| 20260906120056 | 74 | 298 | 1.0 | 5.0 | 0.00 | 0.12 | 0.01 | 74 | 999.8 |
| 20260906114554 | 74 | 244 | 1.0 | 4.0 | 0.00 | 0.12 | 0.01 | 73 | 999.5 |
| 20260906113158 | 74 | 248 | 2.0 | 5.0 | 0.01 | 0.12 | 0.01 | 74 | 999.4 |
| 20260906111553 | 75 | 34 | 0.0 | 6.0 | 0.01 | 0.12 | 0.01 | 72 | 999.5 |
| 20260906110051 | 75 | 129 | 8.0 | 11.0 | 0.01 | 0.12 | 0.01 | 70 | 999.2 |
| 20260906104548 | 76 | 130 | 9.0 | 13.0 | 0.01 | 0.12 | 0.01 | 70 | 999.0 |
| 20260906103054 | 76 | 142 | 10.0 | 11.0 | 0.01 | 0.12 | 0.01 | 69 | 999.1 |
| 20260906101546 | 77 | 147 | 8.0 | 11.0 | 0.00 | 0.11 | 0.00 | 68 | 999.0 |
| 20260906100050 | 76 | 147 | 7.0 | 9.0 | 0.00 | 0.11 | 0.00 | 68 | 999.0 |
| 20260906094548 | 76 | 158 | 6.0 | 8.0 | 0.00 | 0.11 | 0.00 | 68 | 998.9 |
| 20260906093043 | 76 | 192 | 3.0 | 5.0 | 0.00 | 0.11 | 0.00 | 70 | 999.0 |
| 20260906091541 | 76 | 344 | 2.0 | 4.0 | 0.00 | 0.11 | 0.00 | 72 | 999.1 |
| 20260906090040 | 76 | 47 | 2.0 | 5.0 | 0.00 | 0.11 | 0.00 | 71 | 999.1 |
| 20260906084535 | 76 | 71 | 2.0 | 4.0 | 0.00 | 0.11 | 0.11 | 72 | 998.9 |
| 20260906083040 | 75 | 114 | 3.0 | 7.0 | 0.00 | 0.11 | 0.11 | 74 | 999.0 |
| 20260906081536 | 76 | 294 | 2.0 | 6.0 | 0.01 | 0.11 | 0.11 | 73 | 999.2 |
| 20260906080033 | 77 | 9 | 5.0 | 9.0 | 0.01 | 0.11 | 0.11 | 70 | 999.1 |
| 20260906074534 | 77 | 346 | 6.0 | 10.0 | 0.01 | 0.11 | 0.11 | 70 | 999.2 |
| 20260906073036 | 78 | 61 | 7.0 | 11.0 | 0.01 | 0.11 | 0.11 | 69 | 999.4 |
| 20260906071529 | 79 | 85 | 10.0 | 12.0 | 0.00 | 0.10 | 0.10 | 65 | 999.4 |
| 20260906070031 | 82 | 98 | 7.0 | 14.0 | 0.00 | 0.10 | 0.10 | 59 | 999.5 |
| 20260906064534 | 83 | 90 | 7.0 | 9.0 | 0.00 | 0.10 | 0.10 | 52 | 999.6 |
| 20260906063028 | 83 | 146 | 3.0 | 9.0 | 0.00 | 0.10 | 0.10 | 52 | 999.6 |
| 20260906061528 | 81 | 219 | 3.0 | 6.0 | 0.00 | 0.10 | 0.10 | 56 | 999.4 |
| 20260906060032 | 81 | 243 | 4.0 | 7.0 | 0.00 | 0.10 | 0.10 | 58 | 999.4 |
| 20260906054529 | 80 | 236 | 6.0 | 11.0 | 0.01 | 0.10 | 0.10 | 60 | 999.6 |
| 20260906053030 | 80 | 242 | 8.0 | 12.0 | 0.01 | 0.10 | 0.10 | 60 | 999.6 |
| 20260906051532 | 79 | 232 | 5.0 | 7.0 | 0.01 | 0.10 | 0.10 | 65 | 999.6 |
| 20260906050053 | 79 | 262 | 8.0 | 12.0 | 0.01 | 0.10 | 0.10 | 63 | 999.6 |
| 20260906044528 | 79 | 267 | 9.0 | 13.0 | 0.01 | 0.09 | 0.09 | 64 | 999.6 |
| 20260906043030 | 79 | 275 | 10.0 | 15.0 | 0.01 | 0.09 | 0.09 | 64 | 999.6 |
| 20260906041526 | 82 | 268 | 18.0 | 23.0 | 0.02 | 0.09 | 0.09 | 57 | 999.4 |
| 20260906040036 | 77 | 303 | 17.0 | 21.0 | 0.02 | 0.09 | 0.09 | 68 | 999.6 |
| 20260906034527 | 78 | 340 | 15.0 | 19.0 | 0.03 | 0.08 | 0.08 | 68 | 999.8 |
| 20260906033031 | 77 | 336 | 15.0 | 18.0 | 0.03 | 0.08 | 0.08 | 73 | 999.6 |
| 20260906031539 | 77 | 239 | 11.0 | 13.0 | 0.03 | 0.07 | 0.07 | 72 | 999.2 |
| 20260906030032 | 78 | 225 | 14.0 | 19.0 | 0.05 | 0.07 | 0.07 | 68 | 998.6 |
| 20260906024529 | 78 | 241 | 18.0 | 21.0 | 0.04 | 0.06 | 0.06 | 65 | 998.4 |
| 20260906023041 | 79 | 227 | 15.0 | 17.0 | 0.04 | 0.05 | 0.05 | 63 | 998.5 |
| 20260906021518 | 79 | 178 | 6.0 | 16.0 | 0.03 | 0.04 | 0.04 | 59 | 998.5 |
| 20260906020041 | 78 | 88 | 30.0 | 34.0 | 0.03 | 0.03 | 0.03 | 65 | 998.4 |
| 20260906014521 | 83 | 23 | 12.0 | 15.0 | 0.02 | 0.02 | 0.02 | 55 | 997.6 |
| 20260906013020 | 82 | 305 | 17.0 | 21.0 | 0.02 | 0.02 | 0.02 | 57 | 997.3 |
| 20260906011513 | 83 | 292 | 15.0 | 22.0 | 0.01 | 0.01 | 0.01 | 53 | 997.3 |
| 20260906010012 | 86 | 317 | 19.0 | 27.0 | 0.00 | 0.00 | 0.00 | 47 | 997.4 |
| 20260906004511 | 90 | 348 | 21.0 | 29.0 | 0.00 | 0.00 | 0.00 | 40 | 997.2 |
| 20260906003011 | 92 | 236 | 13.0 | 15.0 | 0.00 | 0.00 | 0.00 | 36 | 996.6 |
| 20260906001511 | 93 | 248 | 11.0 | 19.0 | 0.00 | 0.00 | 0.00 | 36 | 996.5 |
| 20260906000010 | 94 | 269 | 8.0 | 11.0 | 0.00 | 0.00 | 0.00 | 33 | 996.3 |
| 20260905234509 | 94 | 246 | 5.0 | 9.0 | 0.00 | 0.00 | 0.00 | 33 | 996.4 |
| 20260905233023 | 94 | 273 | 6.0 | 11.0 | 0.00 | 0.00 | 0.00 | 35 | 996.3 |
| 20260905231514 | 93 | 275 | 11.0 | 18.0 | 0.00 | 0.00 | 0.00 | 34 | 996.3 |
| 20260905230013 | 93 | 279 | 19.0 | 25.0 | 0.00 | 0.00 | 0.00 | 34 | 996.1 |
| 20260905224511 | 94 | 269 | 14.0 | 16.0 | 0.00 | 0.00 | 0.00 | 34 | 996.1 |
| 20260905223007 | 96 | 133 | 5.0 | 14.0 | 0.00 | 0.00 | 0.00 | 29 | 996.1 |
| 20260905221508 | 97 | 98 | 4.0 | 10.0 | 0.00 | 0.00 | 0.00 | 29 | 996.1 |
| 20260905220006 | 95 | 123 | 5.0 | 12.0 | 0.00 | 0.00 | 0.00 | 30 | 996.1 |
| 20260905214505 | 95 | 92 | 6.0 | 15.0 | 0.00 | 0.00 | 0.00 | 30 | 996.3 |
| 20260905213003 | 95 | 93 | 6.0 | 15.0 | 0.00 | 0.00 | 0.00 | 30 | 996.4 |
| 20260905211502 | 96 | 92 | 7.0 | 14.0 | 0.00 | 0.00 | 0.00 | 31 | 996.6 |
| 20260905210103 | 97 | 90 | 10.0 | 19.0 | 0.00 | 0.00 | 0.00 | 30 | 996.7 |